Time,TemperatureF,DewpointF,PressureIn,WindDirection,WindDirectionDegrees,WindSpeedMPH,WindSpeedGustMPH,Humidity,HourlyPrecipIn,Conditions,Clouds,dailyrainin,SoftwareType,DateUTC
2013-12-10 00:12:00,9.0,-99.9,-100.00,SW,232,2.0,5.0,-999,0.00,,,0.00,,2013-12-10 06:12:00,
2013-12-10 00:22:00,9.0,-99.9,-100.00,SW,232,2.0,5.0,-999,0.00,,,0.00,,2013-12-10 06:22:00,
2013-12-10 00:42:00,9.0,-99.9,-100.00,South,191,2.0,4.0,-999,0.00,,,0.00,,2013-12-10 06:42:00,
2013-12-10 00:53:00,9.0,-99.9,-100.00,South,191,2.0,4.0,-999,0.00,,,0.00,,2013-12-10 06:53:00,
2013-12-10 01:11:00,8.0,-99.9,-100.00,WSW,239,2.0,5.0,-999,0.00,,,0.00,,2013-12-10 07:11:00,
2013-12-10 01:22:00,8.0,-99.9,-100.00,WSW,239,2.0,5.0,-999,0.00,,,0.00,,2013-12-10 07:22:00,
2013-12-10 01:42:00,8.0,-99.9,-100.00,WSW,245,3.0,5.0,-999,0.00,,,0.00,,2013-12-10 07:42:00,
2013-12-10 01:52:00,8.0,-99.9,-100.00,WSW,245,3.0,5.0,-999,0.00,,,0.00,,2013-12-10 07:52:00,
2013-12-10 02:12:00,8.0,-99.9,-100.00,SSW,194,2.0,3.0,-999,0.00,,,0.00,,2013-12-10 08:12:00,
2013-12-10 02:22:00,8.0,-99.9,-100.00,SSW,194,2.0,3.0,-999,0.00,,,0.00,,2013-12-10 08:22:00,
2013-12-10 02:43:00,8.0,-99.9,-100.00,SW,215,4.0,9.0,-999,0.00,,,0.00,,2013-12-10 08:43:00,
2013-12-10 02:53:00,8.0,-99.9,-100.00,SW,215,4.0,9.0,-999,0.00,,,0.00,,2013-12-10 08:53:00,
2013-12-10 03:11:00,9.0,-99.9,-100.00,SSW,193,5.0,8.0,-999,0.00,,,0.00,,2013-12-10 09:11:00,
2013-12-10 03:22:00,9.0,-99.9,-100.00,SSW,193,5.0,8.0,-999,0.00,,,0.00,,2013-12-10 09:22:00,
2013-12-10 03:44:00,8.0,-99.9,-100.00,South,189,6.0,9.0,-999,0.00,,,0.00,,2013-12-10 09:44:00,
2013-12-10 03:54:00,8.0,-99.9,-100.00,South,189,6.0,9.0,-999,0.00,,,0.00,,2013-12-10 09:54:00,
2013-12-10 04:12:00,8.0,-99.9,-100.00,South,187,6.0,8.0,-999,0.00,,,0.00,,2013-12-10 10:12:00,
2013-12-10 04:23:00,8.0,-99.9,-100.00,South,187,6.0,8.0,-999,0.00,,,0.00,,2013-12-10 10:23:00,
2013-12-10 04:43:00,9.0,-99.9,-100.00,South,184,6.0,8.0,-999,0.00,,,0.00,,2013-12-10 10:43:00,
2013-12-10 04:53:00,9.0,-99.9,-100.00,South,184,6.0,8.0,-999,0.00,,,0.00,,2013-12-10 10:53:00,
2013-12-10 05:12:00,10.0,-99.9,-100.00,South,187,6.0,10.0,-999,0.00,,,0.00,,2013-12-10 11:12:00,
2013-12-10 05:23:00,10.0,-99.9,-100.00,South,187,6.0,10.0,-999,0.00,,,0.00,,2013-12-10 11:23:00,
2013-12-10 05:43:00,13.0,-99.9,-100.00,South,181,9.0,12.0,-999,0.00,,,0.00,,2013-12-10 11:43:00,
2013-12-10 05:53:00,13.0,-99.9,-100.00,South,181,9.0,12.0,-999,0.00,,,0.00,,2013-12-10 11:53:00,
2013-12-10 06:12:00,14.0,-99.9,-100.00,SSW,192,9.0,14.0,-999,0.00,,,0.00,,2013-12-10 12:12:00,
2013-12-10 06:22:00,14.0,-99.9,-100.00,SSW,192,9.0,14.0,-999,0.00,,,0.00,,2013-12-10 12:22:00,
2013-12-10 06:42:00,14.0,-99.9,-100.00,SW,228,6.0,11.0,-999,0.00,,,0.00,,2013-12-10 12:42:00,
2013-12-10 06:52:00,14.0,-99.9,-100.00,SW,228,6.0,11.0,-999,0.00,,,0.00,,2013-12-10 12:52:00,
2013-12-10 07:12:00,14.0,-99.9,-100.00,SW,216,6.0,11.0,-999,0.00,,,0.00,,2013-12-10 13:12:00,
2013-12-10 07:22:00,14.0,-99.9,-100.00,SW,216,6.0,11.0,-999,0.00,,,0.00,,2013-12-10 13:22:00,
2013-12-10 07:42:00,17.0,-99.9,-100.00,SSW,211,9.0,18.0,-999,0.00,,,0.00,,2013-12-10 13:42:00,
2013-12-10 07:52:00,17.0,-99.9,-100.00,SSW,211,9.0,18.0,-999,0.00,,,0.00,,2013-12-10 13:52:00,
2013-12-10 08:11:00,16.0,-99.9,-100.00,SW,223,7.0,14.0,-999,0.00,,,0.00,,2013-12-10 14:11:00,
2013-12-10 08:22:00,16.0,-99.9,-100.00,SW,223,7.0,14.0,-999,0.00,,,0.00,,2013-12-10 14:22:00,
2013-12-10 08:42:00,18.0,-99.9,-100.00,SW,225,9.0,16.0,-999,0.00,,,0.00,,2013-12-10 14:42:00,
2013-12-10 08:52:00,18.0,-99.9,-100.00,SW,225,9.0,16.0,-999,0.00,,,0.00,,2013-12-10 14:52:00,
2013-12-10 09:11:00,19.0,-99.9,-100.00,WSW,244,4.0,7.0,-999,0.00,,,0.00,,2013-12-10 15:11:00,
2013-12-10 09:22:00,19.0,-99.9,-100.00,WSW,244,4.0,7.0,-999,0.00,,,0.00,,2013-12-10 15:22:00,
2013-12-10 09:44:00,21.0,-99.9,-100.00,SW,224,7.0,14.0,-999,0.00,,,0.00,,2013-12-10 15:44:00,
2013-12-10 09:53:00,21.0,-99.9,-100.00,SW,224,7.0,14.0,-999,0.00,,,0.00,,2013-12-10 15:53:00,
2013-12-10 10:13:00,22.0,-99.9,-100.00,WSW,242,8.0,13.0,-999,0.00,,,0.00,,2013-12-10 16:13:00,
2013-12-10 10:24:00,22.0,-99.9,-100.00,WSW,242,8.0,13.0,-999,0.00,,,0.00,,2013-12-10 16:24:00,
2013-12-10 10:43:00,24.0,-99.9,-100.00,WSW,248,8.0,14.0,-999,0.00,,,0.00,,2013-12-10 16:43:00,
2013-12-10 10:53:00,24.0,-99.9,-100.00,WSW,248,8.0,14.0,-999,0.00,,,0.00,,2013-12-10 16:53:00,
2013-12-10 11:13:00,26.0,-99.9,-100.00,West,264,6.0,12.0,-999,0.00,,,0.00,,2013-12-10 17:13:00,
2013-12-10 11:22:00,26.0,-99.9,-100.00,West,264,6.0,12.0,-999,0.00,,,0.00,,2013-12-10 17:22:00,
2013-12-10 11:43:00,27.0,-99.9,-100.00,West,262,6.0,10.0,-999,0.00,,,0.00,,2013-12-10 17:43:00,
2013-12-10 11:52:00,27.0,-99.9,-100.00,West,262,6.0,10.0,-999,0.00,,,0.00,,2013-12-10 17:52:00,
2013-12-10 12:11:00,27.0,-99.9,-100.00,WSW,250,7.0,15.0,-999,0.00,,,0.00,,2013-12-10 18:11:00,
2013-12-10 12:22:00,27.0,-99.9,-100.00,WSW,250,7.0,15.0,-999,0.00,,,0.00,,2013-12-10 18:22:00,
2013-12-10 12:42:00,28.0,-99.9,-100.00,WSW,252,9.0,22.0,-999,0.00,,,0.00,,2013-12-10 18:42:00,
2013-12-10 12:53:00,28.0,-99.9,-100.00,WSW,252,9.0,22.0,-999,0.00,,,0.00,,2013-12-10 18:53:00,
2013-12-10 13:11:00,29.0,-99.9,-100.00,WSW,254,7.0,11.0,-999,0.00,,,0.00,,2013-12-10 19:11:00,
2013-12-10 13:22:00,29.0,-99.9,-100.00,WSW,254,7.0,11.0,-999,0.00,,,0.00,,2013-12-10 19:22:00,
2013-12-10 13:42:00,29.0,-99.9,-100.00,West,264,7.0,16.0,-999,0.00,,,0.00,,2013-12-10 19:42:00,
2013-12-10 13:52:00,29.0,-99.9,-100.00,West,264,7.0,16.0,-999,0.00,,,0.00,,2013-12-10 19:52:00,
2013-12-10 14:11:00,30.0,-99.9,-100.00,WSW,252,4.0,8.0,-999,0.00,,,0.00,,2013-12-10 20:11:00,
2013-12-10 14:22:00,30.0,-99.9,-100.00,WSW,252,4.0,8.0,-999,0.00,,,0.00,,2013-12-10 20:22:00,
2013-12-10 14:42:00,31.0,-99.9,-100.00,WSW,253,5.0,9.0,-999,0.00,,,0.00,,2013-12-10 20:42:00,
2013-12-10 14:53:00,31.0,-99.9,-100.00,WSW,253,5.0,9.0,-999,0.00,,,0.00,,2013-12-10 20:53:00,
2013-12-10 15:12:00,31.0,-99.9,-100.00,WSW,256,7.0,12.0,-999,0.00,,,-99.99,,2013-12-10 21:12:00,
2013-12-10 15:22:00,31.0,-99.9,-100.00,WSW,256,7.0,12.0,-999,0.00,,,-99.99,,2013-12-10 21:22:00,
2013-12-10 15:43:00,31.0,-99.9,-100.00,WSW,252,7.0,10.0,-999,0.00,,,0.00,,2013-12-10 21:43:00,
2013-12-10 15:54:00,31.0,-99.9,-100.00,WSW,252,7.0,10.0,-999,0.00,,,0.00,,2013-12-10 21:54:00,
2013-12-10 16:13:00,32.0,-99.9,-100.00,WSW,254,3.0,6.0,-999,0.00,,,0.00,,2013-12-10 22:13:00,
2013-12-10 16:23:00,32.0,-99.9,-100.00,WSW,254,3.0,6.0,-999,0.00,,,0.00,,2013-12-10 22:23:00,
2013-12-10 16:43:00,31.0,-99.9,-100.00,WSW,243,3.0,6.0,-999,0.00,,,0.00,,2013-12-10 22:43:00,
2013-12-10 16:53:00,31.0,-99.9,-100.00,WSW,243,3.0,6.0,-999,0.00,,,0.00,,2013-12-10 22:53:00,
2013-12-10 17:12:00,29.0,-99.9,-100.00,SW,227,3.0,4.0,-999,0.00,,,0.00,,2013-12-10 23:12:00,
2013-12-10 17:22:00,29.0,-99.9,-100.00,SW,227,3.0,4.0,-999,0.00,,,0.00,,2013-12-10 23:22:00,
2013-12-10 17:30:00,26.0,-99.9,-100.00,NW,307,1.0,2.0,-999,0.00,,,0.00,,2013-12-10 23:30:00,
2013-12-10 17:43:00,28.0,-99.9,-100.00,WSW,239,2.0,3.0,-999,0.00,,,0.00,,2013-12-10 23:43:00,
2013-12-10 17:53:00,28.0,-99.9,-100.00,WSW,239,2.0,3.0,-999,0.00,,,0.00,,2013-12-10 23:53:00,
2013-12-10 18:12:00,26.0,-99.9,-100.00,NW,307,1.0,2.0,-999,0.00,,,0.00,,2013-12-11 00:12:00,
2013-12-10 18:23:00,26.0,-99.9,-100.00,NW,307,1.0,2.0,-999,0.00,,,0.00,,2013-12-11 00:23:00,
2013-12-10 19:11:00,24.0,-99.9,-100.00,WSW,250,2.0,2.0,-999,0.00,,,0.00,,2013-12-11 01:11:00,
2013-12-10 19:22:00,24.0,-99.9,-100.00,WSW,250,2.0,2.0,-999,0.00,,,0.00,,2013-12-11 01:22:00,
2013-12-10 19:42:00,25.0,-99.9,-100.00,SW,232,0.0,1.0,-999,0.00,,,0.00,,2013-12-11 01:42:00,
2013-12-10 19:52:00,25.0,-99.9,-100.00,SW,232,0.0,1.0,-999,0.00,,,0.00,,2013-12-11 01:52:00,
2013-12-10 20:12:00,23.0,-99.9,-100.00,West,278,0.0,1.0,-999,0.00,,,0.00,,2013-12-11 02:12:00,
2013-12-10 20:22:00,23.0,-99.9,-100.00,West,278,0.0,1.0,-999,0.00,,,0.00,,2013-12-11 02:22:00,
2013-12-10 20:42:00,22.0,-99.9,-100.00,NW,304,1.0,3.0,-999,0.00,,,0.00,,2013-12-11 02:42:00,
2013-12-10 20:52:00,22.0,-99.9,-100.00,NW,304,1.0,3.0,-999,0.00,,,0.00,,2013-12-11 02:52:00,
2013-12-10 21:11:00,23.0,-99.9,-100.00,SSE,157,0.0,1.0,-999,0.00,,,0.00,,2013-12-11 03:11:00,
2013-12-10 21:22:00,23.0,-99.9,-100.00,SSE,157,0.0,1.0,-999,0.00,,,0.00,,2013-12-11 03:22:00,
2013-12-10 21:44:00,23.0,-99.9,-100.00,WNW,289,0.0,1.0,-999,0.00,,,0.00,,2013-12-11 03:44:00,
2013-12-10 21:54:00,23.0,-99.9,-100.00,WNW,289,0.0,1.0,-999,0.00,,,0.00,,2013-12-11 03:54:00,
2013-12-10 22:13:00,23.0,-99.9,-100.00,West,265,1.0,2.0,-999,0.00,,,0.00,,2013-12-11 04:13:00,
2013-12-10 22:23:00,23.0,-99.9,-100.00,West,265,1.0,2.0,-999,0.00,,,0.00,,2013-12-11 04:23:00,
2013-12-10 22:43:00,24.0,-99.9,-100.00,South,171,1.0,2.0,-999,0.00,,,0.00,,2013-12-11 04:43:00,
2013-12-10 22:53:00,24.0,-99.9,-100.00,South,171,1.0,2.0,-999,0.00,,,0.00,,2013-12-11 04:53:00,
2013-12-10 23:12:00,25.0,-99.9,-100.00,SSE,153,2.0,4.0,-999,0.00,,,0.00,,2013-12-11 05:12:00,
2013-12-10 23:23:00,25.0,-99.9,-100.00,SSE,153,2.0,4.0,-999,0.00,,,0.00,,2013-12-11 05:23:00,
2013-12-10 23:43:00,26.0,-99.9,-100.00,SE,132,4.0,4.0,-999,0.00,,,0.00,,2013-12-11 05:43:00,
2013-12-10 23:53:00,26.0,-99.9,-100.00,SE,132,4.0,4.0,-999,0.00,,,0.00,,2013-12-11 05:53:00,